Regional Weather Roundup
Issued by NWS Nashville, TN

Home | Current Version | Previous Version | Text Only | Print | Product List | Glossary On
Versions: 1 2 3 4 5 6 7 8 9 10 11 12 13 14 15 16 17 18 19 20 21 22 23 24 25 26 27 28 29 30 31 32 33 34 35 36 37 38 39 40 41 42 43 44 45 46 47 48 49 50
000
ASUS44 KOHX 260815
RWROHX
MIDDLE TENNESSEE HOURLY WEATHER ROUNDUP
NATIONAL WEATHER SERVICE NASHVILLE TN
200 AM CST MON JAN 26 2015

NOTE: "FAIR" INDICATES FEW OR NO CLOUDS BELOW 12,000 FEET WITH
NO SIGNIFICANT WEATHER AND/OR OBSTRUCTIONS TO VISIBILITY.

* THESE REPORTS ARE NOT UNDER NWS QUALITY CONTROL AND MAY NOT
  REPORT WEATHER SUCH AS PRECIPITATION AND FOG.


TNZ005>011-023>034-057-059-062>066-078-080-260900
...NORTHERN MIDDLE TENNESSEE...

CITY           SKY/WX    TMP DP  RH WIND       PRES   REMARKS
CLARKSVILLE    CLOUDY    35  32  88 NW20G29   29.87R WCI  24
CROSSVILLE     LGT RAIN  39  35  86 W12G18    29.69R WCI  32
GALLATIN       CLOUDY    40  39  96 NW12G30   29.78R WCI  33
DICKSON          N/A     36  36 100 NW12      29.82R WCI  27
LEBANON        CLOUDY    40  39  96 NW12      29.75R WCI  33
LIVINGSTON     CLOUDY    38  37  96 NW8       29.70R WCI  32
NASHVILLE      CLOUDY    40  37  89 NW17G29   29.80R WCI  31
WEST NASHVILLE CLOUDY    37  37 100 NW16      29.81R WCI  28
SMYRNA         CLOUDY    41  37  87 NW14      29.81R
SPARTA         CLOUDY    39  39 100 NW6       29.71S WCI  35
$$
TNZ056-058-060-061-075>077-079-093>097-260900
...SOUTHERN MIDDLE TENNESSEE...

CITY           SKY/WX    TMP DP  RH WIND       PRES   REMARKS
COLUMBIA       CLOUDY   N/A N/A N/A NW9       29.80R
LEWISBURG      CLOUDY    43  42  96 NW6       29.79R
MCMINNVILLE    CLOUDY    41  41 100 NW8       29.74R
MURFREESBORO   CLOUDY    42  39  89 NW14      29.77R
SHELBYVILLE    CLOUDY    43  43 100 NW18      29.78R
TULLAHOMA      CLOUDY    39  39 100 NW12      29.76R WCI  32
WINCHESTER     CLOUDY    41  41 100 VRB7      29.76R
$$


...KEY TO REMARKS...
VSB - VISIBILITY IN MILES
WCI - WIND CHILL INDEX
HX  - HEAT INDEX




USA.gov is the U.S. government's official web portal to all federal, state and local government web resources and services.